Year,Month,Day,Hour,Minute,Value (Times are PST for windspeed in km/hr)
2018,07,01,00,00,0.50
2018,07,01,00,01,2.20
2018,07,01,00,02,3.20
2018,07,01,00,03,1.70
2018,07,01,00,04,2.30
2018,07,01,00,05,1.90
2018,07,01,00,06,2.60
2018,07,01,00,07,3.40
2018,07,01,00,08,1.30
2018,07,01,00,09,0.00
2018,07,01,00,10,0.40
2018,07,01,00,11,3.80
2018,07,01,00,12,4.30
2018,07,01,00,13,2.20
2018,07,01,00,14,1.80
2018,07,01,00,15,0.20
2018,07,01,00,16,1.30
2018,07,01,00,17,2.20
2018,07,01,00,18,2.90
2018,07,01,00,19,1.40
2018,07,01,00,20,2.40
2018,07,01,00,21,6.30
2018,07,01,00,22,6.70
2018,07,01,00,23,2.00
2018,07,01,00,24,1.50
2018,07,01,00,25,1.10
2018,07,01,00,26,3.00
2018,07,01,00,27,1.20
2018,07,01,00,28,1.70
2018,07,01,00,29,1.50
2018,07,01,00,30,0.10
2018,07,01,00,31,1.20
2018,07,01,00,32,1.70
2018,07,01,00,33,1.60
2018,07,01,00,34,1.90
2018,07,01,00,35,0.50
2018,07,01,00,36,2.00
2018,07,01,00,37,3.50
2018,07,01,00,38,1.70
2018,07,01,00,39,1.60
2018,07,01,00,40,2.30
2018,07,01,00,41,0.50
2018,07,01,00,42,0.30
2018,07,01,00,43,3.20
2018,07,01,00,44,2.20
2018,07,01,00,45,1.50
2018,07,01,00,46,0.20
2018,07,01,00,47,0.80
2018,07,01,00,48,2.50
2018,07,01,00,49,3.70
2018,07,01,00,50,3.90
2018,07,01,00,51,1.00
2018,07,01,00,52,2.30
2018,07,01,00,53,1.70
2018,07,01,00,54,1.80
2018,07,01,00,55,2.30
2018,07,01,00,56,2.40
2018,07,01,00,57,2.20
2018,07,01,00,58,2.00
2018,07,01,00,59,0.20
2018,07,01,01,00,0.20
2018,07,01,01,01,0.10
2018,07,01,01,02,2.80
2018,07,01,01,03,0.80
2018,07,01,01,04,0.00
2018,07,01,01,05,0.10
2018,07,01,01,06,0.50
2018,07,01,01,07,1.20
2018,07,01,01,08,3.20
2018,07,01,01,09,1.90
2018,07,01,01,10,1.30
2018,07,01,01,11,0.90
2018,07,01,01,12,2.30
2018,07,01,01,13,1.10
2018,07,01,01,14,1.20
2018,07,01,01,15,1.70
2018,07,01,01,16,4.00
2018,07,01,01,17,0.80
2018,07,01,01,18,1.70
2018,07,01,01,19,3.10
2018,07,01,01,20,1.80
2018,07,01,01,21,2.20
2018,07,01,01,22,3.50
2018,07,01,01,23,4.90
2018,07,01,01,24,3.50
2018,07,01,01,25,0.60
2018,07,01,01,26,0.90
2018,07,01,01,27,1.00
2018,07,01,01,28,2.50
2018,07,01,01,29,1.80
2018,07,01,01,30,0.10
2018,07,01,01,31,1.40
2018,07,01,01,32,0.40
2018,07,01,01,33,1.80
2018,07,01,01,34,1.10
2018,07,01,01,35,0.80
2018,07,01,01,36,1.00
2018,07,01,01,37,0.10
2018,07,01,01,38,1.20
2018,07,01,01,39,0.40
2018,07,01,01,40,0.30
2018,07,01,01,41,0.60
2018,07,01,01,42,0.80
2018,07,01,01,43,3.20
2018,07,01,01,44,3.50
2018,07,01,01,45,6.20
2018,07,01,01,46,3.90
2018,07,01,01,47,2.00
2018,07,01,01,48,0.90
2018,07,01,01,49,2.80
2018,07,01,01,50,5.40
2018,07,01,01,51,1.30
2018,07,01,01,52,2.00
2018,07,01,01,53,2.10
2018,07,01,01,54,1.10
2018,07,01,01,55,1.90
2018,07,01,01,56,0.90
2018,07,01,01,57,2.90
2018,07,01,01,58,2.20
2018,07,01,01,59,2.20
2018,07,01,02,00,2.10
2018,07,01,02,01,1.30
2018,07,01,02,02,1.10
2018,07,01,02,03,0.10
2018,07,01,02,04,0.70
2018,07,01,02,05,1.70
2018,07,01,02,06,2.70
2018,07,01,02,07,2.90
2018,07,01,02,08,0.80
2018,07,01,02,09,2.20
2018,07,01,02,10,0.90
2018,07,01,02,11,1.00
2018,07,01,02,12,0.50
2018,07,01,02,13,2.50
2018,07,01,02,14,1.50
2018,07,01,02,15,5.00
2018,07,01,02,16,1.30
2018,07,01,02,17,1.80
2018,07,01,02,18,1.20
2018,07,01,02,19,1.70
2018,07,01,02,20,1.80
2018,07,01,02,21,0.00
2018,07,01,02,22,2.20
2018,07,01,02,23,1.10
2018,07,01,02,24,1.70
2018,07,01,02,25,1.40
2018,07,01,02,26,0.80
2018,07,01,02,27,3.50
2018,07,01,02,28,4.20
2018,07,01,02,29,3.30
2018,07,01,02,30,2.90
2018,07,01,02,31,2.40
2018,07,01,02,32,1.50
2018,07,01,02,33,2.00
2018,07,01,02,34,1.60
2018,07,01,02,35,2.90
2018,07,01,02,36,1.40
2018,07,01,02,37,2.10
2018,07,01,02,38,0.20
2018,07,01,02,39,1.20
2018,07,01,02,40,0.60
2018,07,01,02,41,0.60
2018,07,01,02,42,1.80
2018,07,01,02,43,3.80
2018,07,01,02,44,3.30
2018,07,01,02,45,1.20
2018,07,01,02,46,2.60
2018,07,01,02,47,3.20
2018,07,01,02,48,1.50
2018,07,01,02,49,0.80
2018,07,01,02,50,0.20
2018,07,01,02,51,0.80
2018,07,01,02,52,0.20
2018,07,01,02,53,0.80
2018,07,01,02,54,0.60
2018,07,01,02,55,0.10
2018,07,01,02,56,0.70
2018,07,01,02,57,1.60
2018,07,01,02,58,0.70
2018,07,01,02,59,0.10
2018,07,01,03,00,0.60
2018,07,01,03,01,0.30
2018,07,01,03,02,0.50
2018,07,01,03,03,0.80
2018,07,01,03,04,1.50
2018,07,01,03,05,0.70
2018,07,01,03,06,0.60
2018,07,01,03,07,4.10
2018,07,01,03,08,1.50
2018,07,01,03,09,0.50
2018,07,01,03,10,2.30
2018,07,01,03,11,1.30
2018,07,01,03,12,1.00
2018,07,01,03,13,1.40
2018,07,01,03,14,2.20
2018,07,01,03,15,1.60
2018,07,01,03,16,3.20
2018,07,01,03,17,1.40
2018,07,01,03,18,1.50
2018,07,01,03,19,1.20
2018,07,01,03,20,1.10
2018,07,01,03,21,1.80
2018,07,01,03,22,2.60
2018,07,01,03,23,1.40
2018,07,01,03,24,3.80
2018,07,01,03,25,1.60
2018,07,01,03,26,0.10
2018,07,01,03,27,1.60
2018,07,01,03,28,1.60
2018,07,01,03,29,1.10
2018,07,01,03,30,1.10
2018,07,01,03,31,0.20
2018,07,01,03,32,0.10
2018,07,01,03,33,0.00
2018,07,01,03,34,0.00
2018,07,01,03,35,2.80
2018,07,01,03,36,1.40
2018,07,01,03,37,0.80
2018,07,01,03,38,0.10
2018,07,01,03,39,0.30
2018,07,01,03,40,2.90
2018,07,01,03,41,2.60
2018,07,01,03,42,1.00
2018,07,01,03,43,0.90
2018,07,01,03,44,0.00
2018,07,01,03,45,1.00
2018,07,01,03,46,0.30
2018,07,01,03,47,0.10
2018,07,01,03,48,1.10
2018,07,01,03,49,0.80
2018,07,01,03,50,1.10
2018,07,01,03,51,0.00
2018,07,01,03,52,0.10
2018,07,01,03,53,1.20
2018,07,01,03,54,1.90
2018,07,01,03,55,2.10
2018,07,01,03,56,1.40
2018,07,01,03,57,0.40
2018,07,01,03,58,0.90
2018,07,01,03,59,6.30
2018,07,01,04,00,3.70
2018,07,01,04,01,2.50
2018,07,01,04,02,1.30
2018,07,01,04,03,3.90
2018,07,01,04,04,2.60
2018,07,01,04,05,2.60
2018,07,01,04,06,0.40
2018,07,01,04,07,1.00
2018,07,01,04,08,1.90
2018,07,01,04,09,3.40
2018,07,01,04,10,3.60
2018,07,01,04,11,1.10
2018,07,01,04,12,1.50
2018,07,01,04,13,1.40
2018,07,01,04,14,2.00
2018,07,01,04,15,0.60
2018,07,01,04,16,2.40
2018,07,01,04,17,2.00
2018,07,01,04,18,1.60
2018,07,01,04,19,2.30
2018,07,01,04,20,1.60
2018,07,01,04,21,2.10
2018,07,01,04,22,0.40
2018,07,01,04,23,0.80
2018,07,01,04,24,1.60
2018,07,01,04,25,0.60
2018,07,01,04,26,0.90
2018,07,01,04,27,0.00
2018,07,01,04,28,1.40
2018,07,01,04,29,0.40
2018,07,01,04,30,3.20
2018,07,01,04,31,0.60
2018,07,01,04,32,0.10
2018,07,01,04,33,0.70
2018,07,01,04,34,1.00
2018,07,01,04,35,1.40
2018,07,01,04,36,2.60
2018,07,01,04,37,2.20
2018,07,01,04,38,1.30
2018,07,01,04,39,0.90
2018,07,01,04,40,1.20
2018,07,01,04,41,2.30
2018,07,01,04,42,2.50
2018,07,01,04,43,1.30
2018,07,01,04,44,1.30
2018,07,01,04,45,1.40
2018,07,01,04,46,2.50
2018,07,01,04,47,0.80
2018,07,01,04,48,0.60
2018,07,01,04,49,1.30
2018,07,01,04,50,2.40
2018,07,01,04,51,2.10
2018,07,01,04,52,2.30
2018,07,01,04,53,1.70
2018,07,01,04,54,1.50
2018,07,01,04,55,0.70
2018,07,01,04,56,0.80
2018,07,01,04,57,1.00
2018,07,01,04,58,2.40
2018,07,01,04,59,2.70
2018,07,01,05,00,1.80
2018,07,01,05,01,1.70
2018,07,01,05,02,1.40
2018,07,01,05,03,1.80
2018,07,01,05,04,3.70
2018,07,01,05,05,1.70
2018,07,01,05,06,5.20
2018,07,01,05,07,3.40
2018,07,01,05,08,2.10
2018,07,01,05,09,1.80
2018,07,01,05,10,1.90
2018,07,01,05,11,2.30
2018,07,01,05,12,4.50
2018,07,01,05,13,3.30
2018,07,01,05,14,2.10
2018,07,01,05,15,0.20
2018,07,01,05,16,1.00
2018,07,01,05,17,0.90
2018,07,01,05,18,1.50
2018,07,01,05,19,0.40
2018,07,01,05,20,1.60
2018,07,01,05,21,1.40
2018,07,01,05,22,2.90
2018,07,01,05,23,2.30
2018,07,01,05,24,1.40
2018,07,01,05,25,1.40
2018,07,01,05,26,1.80
2018,07,01,05,27,2.60
2018,07,01,05,28,3.60
2018,07,01,05,29,4.20
2018,07,01,05,30,2.90
2018,07,01,05,31,2.10
2018,07,01,05,32,2.70
2018,07,01,05,33,0.70
2018,07,01,05,34,1.00
2018,07,01,05,35,1.70
2018,07,01,05,36,2.10
2018,07,01,05,37,1.80
2018,07,01,05,38,1.40
2018,07,01,05,39,0.80
2018,07,01,05,40,1.10
2018,07,01,05,41,1.80
2018,07,01,05,42,1.80
2018,07,01,05,43,1.30
2018,07,01,05,44,2.00
2018,07,01,05,45,2.80
2018,07,01,05,46,2.20
2018,07,01,05,47,0.80
2018,07,01,05,48,0.40
2018,07,01,05,49,2.70
2018,07,01,05,50,0.70
2018,07,01,05,51,0.70
2018,07,01,05,52,4.00
2018,07,01,05,53,3.00
2018,07,01,05,54,0.80
2018,07,01,05,55,0.60
2018,07,01,05,56,0.90
2018,07,01,05,57,0.10
2018,07,01,05,58,1.30
2018,07,01,05,59,0.50
2018,07,01,06,00,1.80
2018,07,01,06,01,0.70
2018,07,01,06,02,1.30
2018,07,01,06,03,1.60
2018,07,01,06,04,0.10
2018,07,01,06,05,0.80
2018,07,01,06,06,0.10
2018,07,01,06,07,0.90
2018,07,01,06,08,1.20
2018,07,01,06,09,2.60
2018,07,01,06,10,1.20
2018,07,01,06,11,0.80
2018,07,01,06,12,0.80
2018,07,01,06,13,1.20
2018,07,01,06,14,1.20
2018,07,01,06,15,0.80
2018,07,01,06,16,0.10
2018,07,01,06,17,0.90
2018,07,01,06,18,2.20
2018,07,01,06,19,1.70
2018,07,01,06,20,1.60
2018,07,01,06,21,0.00
2018,07,01,06,22,1.70
2018,07,01,06,23,1.10
2018,07,01,06,24,1.60
2018,07,01,06,25,3.70
2018,07,01,06,26,2.10
2018,07,01,06,27,1.20
2018,07,01,06,28,0.20
2018,07,01,06,29,0.50
2018,07,01,06,30,0.60
2018,07,01,06,31,1.50
2018,07,01,06,32,2.60
2018,07,01,06,33,0.40
2018,07,01,06,34,2.50
2018,07,01,06,35,1.10
2018,07,01,06,36,0.20
2018,07,01,06,37,0.20
2018,07,01,06,38,1.50
2018,07,01,06,39,0.70
2018,07,01,06,40,0.80
2018,07,01,06,41,0.30
2018,07,01,06,42,0.20
2018,07,01,06,43,0.00
2018,07,01,06,44,0.20
2018,07,01,06,45,0.70
2018,07,01,06,46,0.70
2018,07,01,06,47,0.10
2018,07,01,06,48,0.60
2018,07,01,06,49,0.60
2018,07,01,06,50,0.50
2018,07,01,06,51,1.50
2018,07,01,06,52,1.30
2018,07,01,06,53,1.80
2018,07,01,06,54,1.30
2018,07,01,06,55,0.40
2018,07,01,06,56,0.20
2018,07,01,06,57,2.20
2018,07,01,06,58,1.30
2018,07,01,06,59,1.30
2018,07,01,07,00,0.40
2018,07,01,07,01,1.60
2018,07,01,07,02,1.50
2018,07,01,07,03,0.10
2018,07,01,07,04,1.10
2018,07,01,07,05,0.30
2018,07,01,07,06,0.70
2018,07,01,07,07,1.10
2018,07,01,07,08,1.60
2018,07,01,07,09,1.10
2018,07,01,07,10,0.00
2018,07,01,07,11,0.10
2018,07,01,07,12,0.70
2018,07,01,07,13,1.30
2018,07,01,07,14,0.60
2018,07,01,07,15,1.70
2018,07,01,07,16,2.30
2018,07,01,07,17,3.00
2018,07,01,07,18,1.70
2018,07,01,07,19,1.30
2018,07,01,07,20,1.60
2018,07,01,07,21,0.40
2018,07,01,07,22,0.20
2018,07,01,07,23,0.20
2018,07,01,07,24,0.30
2018,07,01,07,25,1.10
2018,07,01,07,26,1.80
2018,07,01,07,27,1.60
2018,07,01,07,28,1.40
2018,07,01,07,29,2.00
2018,07,01,07,30,0.70
2018,07,01,07,31,2.90
2018,07,01,07,32,1.90
2018,07,01,07,33,1.20
2018,07,01,07,34,2.20
2018,07,01,07,35,1.10
2018,07,01,07,36,2.00
2018,07,01,07,37,2.20
2018,07,01,07,38,2.20
2018,07,01,07,39,2.20
2018,07,01,07,40,1.80
2018,07,01,07,41,5.20
2018,07,01,07,42,3.20
2018,07,01,07,43,3.40
2018,07,01,07,44,2.90
2018,07,01,07,45,4.00
2018,07,01,07,46,3.00
2018,07,01,07,47,1.90
2018,07,01,07,48,2.80
2018,07,01,07,49,3.90
2018,07,01,07,50,2.40
2018,07,01,07,51,2.70
2018,07,01,07,52,1.60
2018,07,01,07,53,2.70
2018,07,01,07,54,2.60
2018,07,01,07,55,2.40
2018,07,01,07,56,3.40
2018,07,01,07,57,3.60
2018,07,01,07,58,4.10
2018,07,01,07,59,4.20
2018,07,01,08,00,5.80
2018,07,01,08,01,6.40
2018,07,01,08,02,4.90
2018,07,01,08,03,3.50
2018,07,01,08,04,5.30
2018,07,01,08,05,4.60
2018,07,01,08,06,3.70
2018,07,01,08,07,1.00
2018,07,01,08,08,1.00
2018,07,01,08,09,1.90
2018,07,01,08,10,1.60
2018,07,01,08,11,1.60
2018,07,01,08,12,2.70
2018,07,01,08,13,3.10
2018,07,01,08,14,0.70
2018,07,01,08,15,1.70
2018,07,01,08,16,2.20
2018,07,01,08,17,1.80
2018,07,01,08,18,3.20
2018,07,01,08,19,1.50
2018,07,01,08,20,2.70
2018,07,01,08,21,1.90
2018,07,01,08,22,7.00
2018,07,01,08,23,4.80
2018,07,01,08,24,4.50
2018,07,01,08,25,3.00
2018,07,01,08,26,2.70
2018,07,01,08,27,1.90
2018,07,01,08,28,1.40
2018,07,01,08,29,7.70
2018,07,01,08,30,2.70
2018,07,01,08,31,3.70
2018,07,01,08,32,2.40
2018,07,01,08,33,3.90
2018,07,01,08,34,5.10
2018,07,01,08,35,4.40
2018,07,01,08,36,4.80
2018,07,01,08,37,5.80
2018,07,01,08,38,3.70
2018,07,01,08,39,4.20
2018,07,01,08,40,8.30
2018,07,01,08,41,1.50
2018,07,01,08,42,2.00
2018,07,01,08,43,3.60
2018,07,01,08,44,5.00
2018,07,01,08,45,2.40
2018,07,01,08,46,2.80
2018,07,01,08,47,4.30
2018,07,01,08,48,3.80
2018,07,01,08,49,5.10
2018,07,01,08,50,3.90
2018,07,01,08,51,3.30
2018,07,01,08,52,3.40
2018,07,01,08,53,2.90
2018,07,01,08,54,2.50
2018,07,01,08,55,4.00
2018,07,01,08,56,2.40
2018,07,01,08,57,2.90
2018,07,01,08,58,4.70
2018,07,01,08,59,5.10
2018,07,01,09,00,4.70
2018,07,01,09,01,4.00
2018,07,01,09,02,6.40
2018,07,01,09,03,5.60
2018,07,01,09,04,5.60
2018,07,01,09,05,3.90
2018,07,01,09,06,3.30
2018,07,01,09,07,0.90
2018,07,01,09,08,1.70
2018,07,01,09,09,5.70
2018,07,01,09,10,4.90
2018,07,01,09,11,1.90
2018,07,01,09,12,3.40
2018,07,01,09,13,2.20
2018,07,01,09,14,3.20
2018,07,01,09,15,7.20
2018,07,01,09,16,5.10
2018,07,01,09,17,5.00
2018,07,01,09,18,3.90
2018,07,01,09,19,3.40
2018,07,01,09,20,2.40
2018,07,01,09,21,2.00
2018,07,01,09,22,5.00
2018,07,01,09,23,3.20
2018,07,01,09,24,5.90
2018,07,01,09,25,3.80
2018,07,01,09,26,3.30
2018,07,01,09,27,2.70
2018,07,01,09,28,2.20
2018,07,01,09,29,2.70
2018,07,01,09,30,3.10
2018,07,01,09,31,2.30
2018,07,01,09,32,4.70
2018,07,01,09,33,4.00
2018,07,01,09,34,2.40
2018,07,01,09,35,1.20
2018,07,01,09,36,3.80
2018,07,01,09,37,4.30
2018,07,01,09,38,2.50
2018,07,01,09,39,2.90
2018,07,01,09,40,3.70
2018,07,01,09,41,2.50
2018,07,01,09,42,6.40
2018,07,01,09,43,6.90
2018,07,01,09,44,7.20
2018,07,01,09,45,4.10
2018,07,01,09,46,2.60
2018,07,01,09,47,2.20
2018,07,01,09,48,7.50
2018,07,01,09,49,4.90
2018,07,01,09,50,3.30
2018,07,01,09,51,4.50
2018,07,01,09,52,4.30
2018,07,01,09,53,4.30
2018,07,01,09,54,2.30
2018,07,01,09,55,4.00
2018,07,01,09,56,4.60
2018,07,01,09,57,2.90
2018,07,01,09,58,4.40
2018,07,01,09,59,3.60
2018,07,01,10,00,6.90
2018,07,01,10,01,6.30
2018,07,01,10,02,3.30
2018,07,01,10,03,3.80
2018,07,01,10,04,5.90
2018,07,01,10,05,2.10
2018,07,01,10,06,3.50
2018,07,01,10,07,2.70
2018,07,01,10,08,0.90
2018,07,01,10,09,2.90
2018,07,01,10,10,6.20
2018,07,01,10,11,5.80
2018,07,01,10,12,1.40
2018,07,01,10,13,4.00
2018,07,01,10,14,4.50
2018,07,01,10,15,3.50
2018,07,01,10,16,2.90
2018,07,01,10,17,3.30
2018,07,01,10,18,3.60
2018,07,01,10,19,2.30
2018,07,01,10,20,2.20
2018,07,01,10,21,4.80
2018,07,01,10,22,5.10
2018,07,01,10,23,4.70
2018,07,01,10,24,2.90
2018,07,01,10,25,7.40
2018,07,01,10,26,6.30
2018,07,01,10,27,6.50
2018,07,01,10,28,2.40
2018,07,01,10,29,4.10
2018,07,01,10,30,6.20
2018,07,01,10,31,9.50
2018,07,01,10,32,3.90
2018,07,01,10,33,7.30
2018,07,01,10,34,12.40
2018,07,01,10,35,4.90
2018,07,01,10,36,3.00
2018,07,01,10,37,4.70
2018,07,01,10,38,4.30
2018,07,01,10,39,9.70
2018,07,01,10,40,3.40
2018,07,01,10,41,4.60
2018,07,01,10,42,7.80
2018,07,01,10,43,5.20
2018,07,01,10,44,4.00
2018,07,01,10,45,6.40
2018,07,01,10,46,8.00
2018,07,01,10,47,5.50
2018,07,01,10,48,3.50
2018,07,01,10,49,3.40
2018,07,01,10,50,2.60
2018,07,01,10,51,4.60
2018,07,01,10,52,5.90
2018,07,01,10,53,5.10
2018,07,01,10,54,6.00
2018,07,01,10,55,5.80
2018,07,01,10,56,6.90
2018,07,01,10,57,12.80
2018,07,01,10,58,10.80
2018,07,01,10,59,11.30
2018,07,01,11,00,9.70
2018,07,01,11,01,8.50
2018,07,01,11,02,8.90
2018,07,01,11,03,6.20
2018,07,01,11,04,7.10
2018,07,01,11,05,9.00
2018,07,01,11,06,7.70
2018,07,01,11,07,4.40
2018,07,01,11,08,3.70
2018,07,01,11,09,3.70
2018,07,01,11,10,4.30
2018,07,01,11,11,8.80
2018,07,01,11,12,8.20
2018,07,01,11,13,7.20
2018,07,01,11,14,6.50
2018,07,01,11,15,3.70
2018,07,01,11,16,8.30
2018,07,01,11,17,6.00
2018,07,01,11,18,10.20
2018,07,01,11,19,9.30
2018,07,01,11,20,10.60
2018,07,01,11,21,5.90
2018,07,01,11,22,3.80
2018,07,01,11,23,5.40
2018,07,01,11,24,6.30
2018,07,01,11,25,7.40
2018,07,01,11,26,8.00
2018,07,01,11,27,3.50
2018,07,01,11,28,3.90
2018,07,01,11,29,7.50
2018,07,01,11,30,7.20
2018,07,01,11,31,5.30
2018,07,01,11,32,3.80
2018,07,01,11,33,4.50
2018,07,01,11,34,9.50
2018,07,01,11,35,4.30
2018,07,01,11,36,7.80
2018,07,01,11,37,9.40
2018,07,01,11,38,6.70
2018,07,01,11,39,7.40
2018,07,01,11,40,5.30
2018,07,01,11,41,6.90
2018,07,01,11,42,2.40
2018,07,01,11,43,3.20
2018,07,01,11,44,6.30
2018,07,01,11,45,4.10
2018,07,01,11,46,6.40
2018,07,01,11,47,5.70
2018,07,01,11,48,7.60
2018,07,01,11,49,10.80
2018,07,01,11,50,9.30
2018,07,01,11,51,9.90
2018,07,01,11,52,10.20
2018,07,01,11,53,8.20
2018,07,01,11,54,7.20
2018,07,01,11,55,9.80
2018,07,01,11,56,8.20
2018,07,01,11,57,4.10
2018,07,01,11,58,6.30
2018,07,01,11,59,4.50
2018,07,01,12,00,1.90
2018,07,01,12,01,4.40
2018,07,01,12,02,4.60
2018,07,01,12,03,4.00
2018,07,01,12,04,2.50
2018,07,01,12,05,3.80
2018,07,01,12,06,2.40
2018,07,01,12,07,4.70
2018,07,01,12,08,3.60
2018,07,01,12,09,5.20
2018,07,01,12,10,4.50
2018,07,01,12,11,6.30
2018,07,01,12,12,10.50
2018,07,01,12,13,4.90
2018,07,01,12,14,3.70
2018,07,01,12,15,4.30
2018,07,01,12,16,3.70
2018,07,01,12,17,7.10
2018,07,01,12,18,11.20
2018,07,01,12,19,5.30
2018,07,01,12,20,5.30
2018,07,01,12,21,6.60
2018,07,01,12,22,8.80
2018,07,01,12,23,10.00
2018,07,01,12,24,14.30
2018,07,01,12,25,10.90
2018,07,01,12,26,3.30
2018,07,01,12,27,3.30
2018,07,01,12,28,6.00
2018,07,01,12,29,6.90
2018,07,01,12,30,6.90
2018,07,01,12,31,10.50
2018,07,01,12,32,7.90
2018,07,01,12,33,3.40
2018,07,01,12,34,5.10
2018,07,01,12,35,3.30
2018,07,01,12,36,4.90
2018,07,01,12,37,5.10
2018,07,01,12,38,4.10
2018,07,01,12,39,4.40
2018,07,01,12,40,10.60
2018,07,01,12,41,9.70
2018,07,01,12,42,9.90
2018,07,01,12,43,2.70
2018,07,01,12,44,3.30
2018,07,01,12,45,6.10
2018,07,01,12,46,11.70
2018,07,01,12,47,11.40
2018,07,01,12,48,13.70
2018,07,01,12,49,5.70
2018,07,01,12,50,10.20
2018,07,01,12,51,8.70
2018,07,01,12,52,5.20
2018,07,01,12,53,5.90
2018,07,01,12,54,6.10
2018,07,01,12,55,6.00
2018,07,01,12,56,5.90
2018,07,01,12,57,7.00
2018,07,01,12,58,7.40
2018,07,01,12,59,8.80
2018,07,01,13,00,7.10
2018,07,01,13,01,5.70
2018,07,01,13,02,6.10
2018,07,01,13,03,2.90
2018,07,01,13,04,7.30
2018,07,01,13,05,7.60
2018,07,01,13,06,11.20
2018,07,01,13,07,14.60
2018,07,01,13,08,13.00
2018,07,01,13,09,3.70
2018,07,01,13,10,4.90
2018,07,01,13,11,5.50
2018,07,01,13,12,4.30
2018,07,01,13,13,4.40
2018,07,01,13,14,7.50
2018,07,01,13,15,2.80
2018,07,01,13,16,5.20
2018,07,01,13,17,6.10
2018,07,01,13,18,9.40
2018,07,01,13,19,8.80
2018,07,01,13,20,8.80
2018,07,01,13,21,4.00
2018,07,01,13,22,5.60
2018,07,01,13,23,6.30
2018,07,01,13,24,3.80
2018,07,01,13,25,6.20
2018,07,01,13,26,2.90
2018,07,01,13,27,9.60
2018,07,01,13,28,7.80
2018,07,01,13,29,8.00
2018,07,01,13,30,16.40
2018,07,01,13,31,9.80
2018,07,01,13,32,9.60
2018,07,01,13,33,14.40
2018,07,01,13,34,5.70
2018,07,01,13,35,3.70
2018,07,01,13,36,7.70
2018,07,01,13,37,10.20
2018,07,01,13,38,8.30
2018,07,01,13,39,8.20
2018,07,01,13,40,5.30
2018,07,01,13,41,8.00
2018,07,01,13,42,5.90
2018,07,01,13,43,5.00
2018,07,01,13,44,11.00
2018,07,01,13,45,8.80
2018,07,01,13,46,15.00
2018,07,01,13,47,8.70
2018,07,01,13,48,8.80
2018,07,01,13,49,9.00
2018,07,01,13,50,6.10
2018,07,01,13,51,4.70
2018,07,01,13,52,5.30
2018,07,01,13,53,8.80
2018,07,01,13,54,5.70
2018,07,01,13,55,5.00
2018,07,01,13,56,4.00
2018,07,01,13,57,4.90
2018,07,01,13,58,8.70
2018,07,01,13,59,14.40
2018,07,01,14,00,7.20
2018,07,01,14,01,6.40
2018,07,01,14,02,6.00
2018,07,01,14,03,6.00
2018,07,01,14,04,5.30
2018,07,01,14,05,4.40
2018,07,01,14,06,10.00
2018,07,01,14,07,11.20
2018,07,01,14,08,7.50
2018,07,01,14,09,5.70
2018,07,01,14,10,7.50
2018,07,01,14,11,6.00
2018,07,01,14,12,6.70
2018,07,01,14,13,5.80
2018,07,01,14,14,9.10
2018,07,01,14,15,7.60
2018,07,01,14,16,14.40
2018,07,01,14,17,11.40
2018,07,01,14,18,9.90
2018,07,01,14,19,7.00
2018,07,01,14,20,7.20
2018,07,01,14,21,6.30
2018,07,01,14,22,8.20
2018,07,01,14,23,6.50
2018,07,01,14,24,3.60
2018,07,01,14,25,7.20
2018,07,01,14,26,9.50
2018,07,01,14,27,4.10
2018,07,01,14,28,8.30
2018,07,01,14,29,7.50
2018,07,01,14,30,9.20
2018,07,01,14,31,9.20
2018,07,01,14,32,6.40
2018,07,01,14,33,9.30
2018,07,01,14,34,8.30
2018,07,01,14,35,10.70
2018,07,01,14,36,6.00
2018,07,01,14,37,5.70
2018,07,01,14,38,3.90
2018,07,01,14,39,8.70
2018,07,01,14,40,9.00
2018,07,01,14,41,14.90
2018,07,01,14,42,8.30
2018,07,01,14,43,13.70
2018,07,01,14,44,11.30
2018,07,01,14,45,4.80
2018,07,01,14,46,5.30
2018,07,01,14,47,11.60
2018,07,01,14,48,6.90
2018,07,01,14,49,6.70
2018,07,01,14,50,5.70
2018,07,01,14,51,11.70
2018,07,01,14,52,7.80
2018,07,01,14,53,3.50
2018,07,01,14,54,2.80
2018,07,01,14,55,4.20
2018,07,01,14,56,3.90
2018,07,01,14,57,5.40
2018,07,01,14,58,3.20
2018,07,01,14,59,3.50
2018,07,01,15,00,8.60
2018,07,01,15,01,5.40
2018,07,01,15,02,8.10
2018,07,01,15,03,7.70
2018,07,01,15,04,8.20
2018,07,01,15,05,4.80
2018,07,01,15,06,5.20
2018,07,01,15,07,6.80
2018,07,01,15,08,4.90
2018,07,01,15,09,3.80
2018,07,01,15,10,10.00
2018,07,01,15,11,5.50
2018,07,01,15,12,11.30
2018,07,01,15,13,8.50
2018,07,01,15,14,6.00
2018,07,01,15,15,10.10
2018,07,01,15,16,13.80
2018,07,01,15,17,6.10
2018,07,01,15,18,5.70
2018,07,01,15,19,6.10
2018,07,01,15,20,4.80
2018,07,01,15,21,4.40
2018,07,01,15,22,11.30
2018,07,01,15,23,10.00
2018,07,01,15,24,10.50
2018,07,01,15,25,10.20
2018,07,01,15,26,8.70
2018,07,01,15,27,13.00
2018,07,01,15,28,9.00
2018,07,01,15,29,8.10
2018,07,01,15,30,8.80
2018,07,01,15,31,4.60
2018,07,01,15,32,8.00
2018,07,01,15,33,7.80
2018,07,01,15,34,9.90
2018,07,01,15,35,5.00
2018,07,01,15,36,6.10
2018,07,01,15,37,1.60
2018,07,01,15,38,7.20
2018,07,01,15,39,4.70
2018,07,01,15,40,4.90
2018,07,01,15,41,3.30
2018,07,01,15,42,5.70
2018,07,01,15,43,10.70
2018,07,01,15,44,6.10
2018,07,01,15,45,5.10
2018,07,01,15,46,5.60
2018,07,01,15,47,5.90
2018,07,01,15,48,9.10
2018,07,01,15,49,9.90
2018,07,01,15,50,11.40
2018,07,01,15,51,12.00
2018,07,01,15,52,14.00
2018,07,01,15,53,8.20
2018,07,01,15,54,10.70
2018,07,01,15,55,11.80
2018,07,01,15,56,11.90
2018,07,01,15,57,13.40
2018,07,01,15,58,11.30
2018,07,01,15,59,13.20
2018,07,01,16,00,8.60
2018,07,01,16,01,7.80
2018,07,01,16,02,4.00
2018,07,01,16,03,8.60
2018,07,01,16,04,11.50
2018,07,01,16,05,9.10
2018,07,01,16,06,7.70
2018,07,01,16,07,6.00
2018,07,01,16,08,1.90
2018,07,01,16,09,5.20
2018,07,01,16,10,7.40
2018,07,01,16,11,6.00
2018,07,01,16,12,5.20
2018,07,01,16,13,8.00
2018,07,01,16,14,11.50
2018,07,01,16,15,8.80
2018,07,01,16,16,9.90
2018,07,01,16,17,3.70
2018,07,01,16,18,14.50
2018,07,01,16,19,13.80
2018,07,01,16,20,2.90
2018,07,01,16,21,8.80
2018,07,01,16,22,13.40
2018,07,01,16,23,12.00
2018,07,01,16,24,7.10
2018,07,01,16,25,7.80
2018,07,01,16,26,4.80
2018,07,01,16,27,9.40
2018,07,01,16,28,7.40
2018,07,01,16,29,3.20
2018,07,01,16,30,6.40
2018,07,01,16,31,3.70
2018,07,01,16,32,7.00
2018,07,01,16,33,7.30
2018,07,01,16,34,7.30
2018,07,01,16,35,8.20
2018,07,01,16,36,5.10
2018,07,01,16,37,6.60
2018,07,01,16,38,4.40
2018,07,01,16,39,5.20
2018,07,01,16,40,9.10
2018,07,01,16,41,4.30
2018,07,01,16,42,4.30
2018,07,01,16,43,4.90
2018,07,01,16,44,7.60
2018,07,01,16,45,11.70
2018,07,01,16,46,12.80
2018,07,01,16,47,11.00
2018,07,01,16,48,7.50
2018,07,01,16,49,7.10
2018,07,01,16,50,10.40
2018,07,01,16,51,11.80
2018,07,01,16,52,6.90
2018,07,01,16,53,8.20
2018,07,01,16,54,3.70
2018,07,01,16,55,10.60
2018,07,01,16,56,7.00
2018,07,01,16,57,9.50
2018,07,01,16,58,5.30
2018,07,01,16,59,4.10
2018,07,01,17,00,7.70
2018,07,01,17,01,7.80
2018,07,01,17,02,6.20
2018,07,01,17,03,4.90
2018,07,01,17,04,6.60
2018,07,01,17,05,3.30
2018,07,01,17,06,10.80
2018,07,01,17,07,10.70
2018,07,01,17,08,10.30
2018,07,01,17,09,12.80
2018,07,01,17,10,15.80
2018,07,01,17,11,9.80
2018,07,01,17,12,14.30
2018,07,01,17,13,7.20
2018,07,01,17,14,9.60
2018,07,01,17,15,14.90
2018,07,01,17,16,7.00
2018,07,01,17,17,11.70
2018,07,01,17,18,7.70
2018,07,01,17,19,5.40
2018,07,01,17,20,4.10
2018,07,01,17,21,13.30
2018,07,01,17,22,8.20
2018,07,01,17,23,13.70
2018,07,01,17,24,6.10
2018,07,01,17,25,5.70
2018,07,01,17,26,10.30
2018,07,01,17,27,3.80
2018,07,01,17,28,9.90
2018,07,01,17,29,6.80
2018,07,01,17,30,3.80
2018,07,01,17,31,15.10
2018,07,01,17,32,10.40
2018,07,01,17,33,11.00
2018,07,01,17,34,13.50
2018,07,01,17,35,12.50
2018,07,01,17,36,7.60
2018,07,01,17,37,7.40
2018,07,01,17,38,4.90
2018,07,01,17,39,4.60
2018,07,01,17,40,10.70
2018,07,01,17,41,12.10
2018,07,01,17,42,10.30
2018,07,01,17,43,7.80
2018,07,01,17,44,12.30
2018,07,01,17,45,10.80
2018,07,01,17,46,7.80
2018,07,01,17,47,7.20
2018,07,01,17,48,7.30
2018,07,01,17,49,9.40
2018,07,01,17,50,10.40
2018,07,01,17,51,5.70
2018,07,01,17,52,13.80
2018,07,01,17,53,12.20
2018,07,01,17,54,8.80
2018,07,01,17,55,6.30
2018,07,01,17,56,10.10
2018,07,01,17,57,8.40
2018,07,01,17,58,8.80
2018,07,01,17,59,4.50
2018,07,01,18,00,5.20
2018,07,01,18,01,3.20
2018,07,01,18,02,5.50